| time (UTC) | temp C | wind direction | speed KPH | gust KPH | rain 1hr cm | rain 24hr cm | rain mn cm | humidity % | barometer mb |
| 20260506015038 | 0 | 0 | 0.0 | 3.2 | 0.03 | 0.84 | 0.53 | 93 | 1014.1 |
| 20260506014549 | 0 | 0 | 0.0 | 3.2 | 0.03 | 0.84 | 0.53 | 93 | 1014.1 |
| 20260506014037 | 0 | 349 | 0.0 | 3.2 | 0.03 | 0.84 | 0.53 | 93 | 1014.1 |
| 20260506013536 | 0 | 0 | 0.0 | 3.2 | 0.03 | 0.84 | 0.53 | 93 | 1013.9 |
| 20260506013045 | 0 | 333 | 0.0 | 3.2 | 0.03 | 0.84 | 0.53 | 93 | 1013.9 |
| 20260506012537 | 0 | 0 | 0.0 | 3.2 | 0.00 | 0.81 | 0.51 | 93 | 1014.1 |
| 20260506012041 | 0 | 0 | 0.0 | 3.2 | 0.00 | 0.81 | 0.51 | 93 | 1014.0 |
| 20260506011548 | 0 | 0 | 0.0 | 3.2 | 0.00 | 0.81 | 0.51 | 93 | 1013.9 |
| 20260506011037 | 0 | 0 | 0.0 | 3.2 | 0.00 | 0.81 | 0.51 | 93 | 1013.7 |
| 20260506010534 | 0 | 0 | 0.0 | 3.2 | 0.00 | 0.81 | 0.51 | 93 | 1013.7 |
| 20260506010046 | 0 | 0 | 0.0 | 3.2 | 0.00 | 0.81 | 0.51 | 93 | 1013.6 |
| 20260506005537 | 0 | 350 | 0.0 | 4.8 | 0.00 | 0.81 | 0.51 | 93 | 1013.5 |
| 20260506005035 | 0 | 0 | 0.0 | 4.8 | 0.00 | 0.81 | 0.51 | 93 | 1013.6 |
| 20260506004547 | 0 | 0 | 0.0 | 4.8 | 0.00 | 0.81 | 0.51 | 93 | 1013.6 |
| 20260506004037 | 0 | 349 | 0.0 | 3.2 | 0.00 | 0.81 | 0.51 | 93 | 1013.5 |
| 20260506003537 | 0 | 0 | 0.0 | 3.2 | 0.00 | 0.81 | 0.51 | 93 | 1013.5 |
| 20260506003048 | 0 | 0 | 0.0 | 4.8 | 0.00 | 0.81 | 0.51 | 93 | 1013.6 |
| 20260506002537 | 0 | 0 | 0.0 | 4.8 | 0.00 | 0.81 | 0.51 | 93 | 1013.5 |
| 20260506002037 | 0 | 0 | 1.6 | 4.8 | 0.00 | 0.81 | 0.51 | 93 | 1013.6 |
| 20260506001559 | 0 | 0 | 0.0 | 4.8 | 0.00 | 0.81 | 0.51 | 93 | 1013.5 |
| 20260506001038 | 0 | 341 | 0.0 | 4.8 | 0.00 | 0.81 | 0.51 | 93 | 1013.5 |
| 20260506000538 | 0 | 0 | 0.0 | 4.8 | 0.00 | 0.81 | 0.51 | 93 | 1013.5 |
| 20260506000056 | 0 | 337 | 0.0 | 4.8 | 0.00 | 0.81 | 0.51 | 93 | 1013.4 |
| 20260505235538 | 0 | 332 | 0.0 | 4.8 | 0.00 | 0.81 | 0.51 | 93 | 1013.3 |
| 20260505235037 | 0 | 0 | 0.0 | 4.8 | 0.00 | 0.81 | 0.51 | 93 | 1013.3 |
| 20260505234549 | 0 | 0 | 0.0 | 3.2 | 0.00 | 0.81 | 0.51 | 93 | 1013.2 |
| 20260505234034 | 0 | 0 | 0.0 | 3.2 | 0.00 | 0.81 | 0.51 | 93 | 1013.3 |
| 20260505233536 | 0 | 0 | 0.0 | 3.2 | 0.00 | 0.81 | 0.51 | 93 | 1013.2 |
| 20260505233050 | 0 | 0 | 0.0 | 4.8 | 0.00 | 0.81 | 0.51 | 93 | 1013.2 |
| 20260505232539 | 0 | 0 | 0.0 | 4.8 | 0.00 | 0.81 | 0.51 | 93 | 1013.1 |
| 20260505232036 | 0 | 0 | 1.6 | 4.8 | 0.00 | 0.81 | 0.51 | 93 | 1013.1 |
| 20260505231551 | 0 | 352 | 0.0 | 4.8 | 0.00 | 0.81 | 0.51 | 93 | 1013.0 |
| 20260505231037 | 0 | 321 | 0.0 | 6.4 | 0.00 | 0.81 | 0.51 | 93 | 1012.9 |
| 20260505230537 | 0 | 12 | 0.0 | 6.4 | 0.00 | 0.81 | 0.51 | 92 | 1013.0 |
| 20260505230050 | 0 | 0 | 0.0 | 16.1 | 0.00 | 0.81 | 0.51 | 92 | 1013.1 |
| 20260505225538 | 0 | 360 | 0.0 | 16.1 | 0.00 | 0.81 | 0.51 | 92 | 1013.0 |
| 20260505225038 | 0 | 340 | 1.6 | 16.1 | 0.03 | 0.81 | 0.51 | 92 | 1013.2 |
| 20260505224550 | 0 | 0 | 3.2 | 14.5 | 0.03 | 0.81 | 0.51 | 92 | 1013.3 |
| 20260505224037 | 0 | 352 | 1.6 | 8.0 | 0.03 | 0.81 | 0.51 | 92 | 1012.9 |
| 20260505223537 | 0 | 12 | 1.6 | 6.4 | 0.03 | 0.81 | 0.51 | 92 | 1012.9 |
| 20260505223048 | 0 | 11 | 0.0 | 6.4 | 0.05 | 0.81 | 0.51 | 92 | 1012.7 |
| 20260505222537 | 0 | 0 | 0.0 | 6.4 | 0.05 | 0.81 | 0.51 | 92 | 1012.4 |
| 20260505222042 | 0 | 0 | 0.0 | 6.4 | 0.05 | 0.81 | 0.51 | 92 | 1012.3 |
| 20260505221551 | 1 | 352 | 0.0 | 6.4 | 0.08 | 0.81 | 0.51 | 92 | 1012.2 |
| 20260505221036 | 1 | 0 | 1.6 | 8.0 | 0.08 | 0.81 | 0.51 | 92 | 1012.7 |
| 20260505220534 | 1 | 321 | 0.0 | 8.0 | 0.08 | 0.81 | 0.51 | 92 | 1012.8 |
| 20260505215537 | 1 | 0 | 1.6 | 8.0 | 0.10 | 0.81 | 0.51 | 91 | 1012.6 |
| 20260505215035 | 1 | 0 | 1.6 | 8.0 | 0.08 | 0.79 | 0.48 | 91 | 1012.1 |
| 20260505214559 | 1 | 0 | 0.0 | 8.0 | 0.10 | 0.79 | 0.48 | 91 | 1012.0 |
| 20260505214037 | 1 | 31 | 0.0 | 4.8 | 0.10 | 0.79 | 0.48 | 91 | 1012.1 |
| 20260505213535 | 1 | 0 | 0.0 | 8.0 | 0.10 | 0.79 | 0.48 | 91 | 1012.1 |
| 20260505213048 | 1 | 336 | 1.6 | 17.7 | 0.08 | 0.76 | 0.46 | 90 | 1012.3 |
| 20260505212536 | 1 | 15 | 1.6 | 17.7 | 0.08 | 0.76 | 0.46 | 89 | 1012.2 |
| 20260505212035 | 2 | 5 | 0.0 | 14.5 | 0.08 | 0.76 | 0.46 | 91 | 1012.3 |
| 20260505211608 | 2 | 0 | 0.0 | 8.0 | 0.05 | 0.74 | 0.43 | 91 | 1012.4 |
| 20260505211038 | 2 | 0 | 0.0 | 6.4 | 0.08 | 0.74 | 0.43 | 91 | 1012.4 |
| 20260505210534 | 2 | 11 | 0.0 | 6.4 | 0.08 | 0.74 | 0.43 | 91 | 1012.3 |
| 20260505210047 | 2 | 0 | 0.0 | 3.2 | 0.08 | 0.74 | 0.43 | 91 | 1012.3 |
| 20260505205535 | 3 | 0 | 0.0 | 3.2 | 0.05 | 0.71 | 0.41 | 91 | 1012.2 |
| 20260505205036 | 3 | 0 | 0.0 | 4.8 | 0.05 | 0.71 | 0.41 | 91 | 1012.4 |
| 20260505204558 | 3 | 0 | 0.0 | 4.8 | 0.05 | 0.69 | 0.38 | 91 | 1012.5 |
| 20260505204036 | 3 | 0 | 0.0 | 4.8 | 0.05 | 0.69 | 0.38 | 92 | 1012.7 |
| 20260505203535 | 2 | 0 | 0.0 | 4.8 | 0.05 | 0.69 | 0.38 | 91 | 1012.7 |
| 20260505203042 | 2 | 0 | 0.0 | 6.4 | 0.05 | 0.69 | 0.38 | 91 | 1012.8 |
| 20260505202538 | 2 | 13 | 0.0 | 6.4 | 0.05 | 0.69 | 0.38 | 91 | 1013.0 |
| 20260505202038 | 2 | 352 | 0.0 | 4.8 | 0.05 | 0.69 | 0.38 | 91 | 1013.3 |
| 20260505201550 | 2 | 22 | 1.6 | 4.8 | 0.05 | 0.69 | 0.38 | 91 | 1013.1 |
| 20260505201037 | 2 | 0 | 0.0 | 6.4 | 0.05 | 0.66 | 0.36 | 91 | 1013.3 |
| 20260505200534 | 2 | 0 | 0.0 | 6.4 | 0.05 | 0.66 | 0.36 | 91 | 1013.3 |
| 20260505200048 | 2 | 0 | 0.0 | 4.8 | 0.05 | 0.66 | 0.36 | 90 | 1013.3 |
| 20260505195534 | 2 | 0 | 0.0 | 4.8 | 0.05 | 0.66 | 0.36 | 90 | 1013.3 |
| 20260505195036 | 2 | 0 | 0.0 | 3.2 | 0.05 | 0.66 | 0.36 | 90 | 1013.2 |
| 20260505194547 | 2 | 0 | 0.0 | 0.0 | 0.03 | 0.64 | 0.33 | 90 | 1013.3 |
| 20260505194035 | 3 | 0 | 0.0 | 0.0 | 0.03 | 0.64 | 0.33 | 90 | 1013.2 |
| 20260505193534 | 3 | 0 | 0.0 | 4.8 | 0.03 | 0.64 | 0.33 | 90 | 1013.3 |
| 20260505193045 | 3 | 0 | 0.0 | 4.8 | 0.03 | 0.64 | 0.33 | 90 | 1013.3 |
| 20260505192534 | 3 | 0 | 0.0 | 0.0 | 0.03 | 0.64 | 0.33 | 90 | 1013.3 |
| 20260505192034 | 3 | 0 | 0.0 | 0.0 | 0.03 | 0.64 | 0.33 | 90 | 1013.2 |
| 20260505191542 | 3 | 0 | 0.0 | 1.6 | 0.03 | 0.64 | 0.33 | 89 | 1013.1 |
| 20260505191034 | 3 | 0 | 0.0 | 1.6 | 0.00 | 0.61 | 0.30 | 89 | 1013.1 |
| 20260505190537 | 3 | 0 | 0.0 | 0.0 | 0.00 | 0.61 | 0.30 | 90 | 1013.2 |
| 20260505190048 | 3 | 0 | 0.0 | 0.0 | 0.00 | 0.61 | 0.30 | 89 | 1013.1 |
| 20260505185539 | 3 | 0 | 0.0 | 0.0 | 0.00 | 0.61 | 0.30 | 90 | 1013.1 |
| 20260505185035 | 3 | 0 | 0.0 | 0.0 | 0.00 | 0.61 | 0.30 | 90 | 1013.4 |
| 20260505184549 | 3 | 0 | 0.0 | 0.0 | 0.00 | 0.61 | 0.30 | 90 | 1013.3 |
| 20260505184037 | 3 | 0 | 0.0 | 0.0 | 0.00 | 0.61 | 0.30 | 90 | 1013.5 |
| 20260505183537 | 3 | 0 | 0.0 | 0.0 | 0.00 | 0.61 | 0.30 | 90 | 1013.8 |
| 20260505183045 | 3 | 0 | 0.0 | 0.0 | 0.00 | 0.61 | 0.30 | 90 | 1013.8 |
| 20260505182534 | 2 | 0 | 0.0 | 0.0 | 0.00 | 0.61 | 0.30 | 90 | 1013.8 |
| 20260505182036 | 2 | 0 | 0.0 | 0.0 | 0.00 | 0.61 | 0.30 | 90 | 1013.9 |
| 20260505181606 | 2 | 0 | 0.0 | 0.0 | 0.00 | 0.61 | 0.30 | 90 | 1013.8 |
| 20260505181055 | 2 | 0 | 0.0 | 0.0 | 0.00 | 0.61 | 0.30 | 90 | 1014.0 |
| 20260505180534 | 3 | 0 | 0.0 | 0.0 | 0.00 | 0.61 | 0.30 | 91 | 1014.0 |
| 20260505180059 | 3 | 0 | 0.0 | 0.0 | 0.00 | 0.61 | 0.30 | 91 | 1014.0 |
| 20260505175535 | 2 | 0 | 0.0 | 1.6 | 0.00 | 0.61 | 0.30 | 91 | 1014.0 |
| 20260505175036 | 2 | 0 | 0.0 | 3.2 | 0.00 | 0.61 | 0.30 | 91 | 1014.0 |
| 20260505174545 | 2 | 0 | 0.0 | 3.2 | 0.00 | 0.61 | 0.30 | 91 | 1014.1 |
| 20260505174034 | 2 | 0 | 0.0 | 4.8 | 0.00 | 0.61 | 0.30 | 91 | 1014.3 |
| 20260505173536 | 2 | 0 | 0.0 | 4.8 | 0.00 | 0.61 | 0.30 | 91 | 1014.3 |
| 20260505173041 | 2 | 0 | 0.0 | 1.6 | 0.00 | 0.61 | 0.30 | 90 | 1014.3 |
| 20260505172533 | 2 | 0 | 0.0 | 1.6 | 0.00 | 0.61 | 0.30 | 91 | 1014.4 |
| 20260505172034 | 2 | 0 | 0.0 | 0.0 | 0.00 | 0.61 | 0.30 | 91 | 1014.5 |
| 20260505171551 | 2 | 0 | 0.0 | 0.0 | 0.03 | 0.61 | 0.30 | 90 | 1014.5 |
| 20260505171038 | 2 | 0 | 0.0 | 1.6 | 0.03 | 0.61 | 0.30 | 91 | 1014.5 |
| 20260505170538 | 2 | 0 | 0.0 | 1.6 | 0.03 | 0.61 | 0.30 | 92 | 1014.6 |
| 20260505170044 | 2 | 0 | 0.0 | 1.6 | 0.03 | 0.61 | 0.30 | 92 | 1014.5 |
| 20260505165537 | 2 | 0 | 0.0 | 0.0 | 0.03 | 0.61 | 0.30 | 92 | 1014.5 |
| 20260505165034 | 2 | 0 | 0.0 | 0.0 | 0.03 | 0.61 | 0.30 | 92 | 1014.5 |
| 20260505164547 | 2 | 0 | 0.0 | 0.0 | 0.03 | 0.61 | 0.30 | 92 | 1014.5 |
| 20260505164033 | 2 | 0 | 0.0 | 0.0 | 0.03 | 0.61 | 0.30 | 92 | 1014.5 |
| 20260505163537 | 2 | 0 | 0.0 | 0.0 | 0.03 | 0.61 | 0.30 | 92 | 1014.5 |
| 20260505163046 | 2 | 0 | 0.0 | 0.0 | 0.03 | 0.61 | 0.30 | 92 | 1014.6 |
| 20260505162538 | 2 | 0 | 0.0 | 1.6 | 0.03 | 0.61 | 0.30 | 92 | 1014.7 |
| 20260505162034 | 2 | 0 | 0.0 | 1.6 | 0.03 | 0.61 | 0.30 | 92 | 1014.7 |
| 20260505161541 | 2 | 0 | 0.0 | 1.6 | 0.00 | 0.58 | 0.28 | 92 | 1014.7 |
| 20260505161034 | 2 | 0 | 0.0 | 3.2 | 0.00 | 0.58 | 0.28 | 93 | 1014.7 |
| 20260505160535 | 2 | 0 | 0.0 | 4.8 | 0.00 | 0.58 | 0.28 | 93 | 1014.7 |
| 20260505153047 | 1 | 0 | 0.0 | 0.0 | 0.00 | 0.58 | 0.28 | 93 | 1015.0 |
| 20260505152537 | 1 | 0 | 0.0 | 0.0 | 0.00 | 0.58 | 0.28 | 93 | 1014.9 |
| 20260505152038 | 1 | 0 | 0.0 | 0.0 | 0.00 | 0.58 | 0.28 | 93 | 1015.0 |
| 20260505151545 | 1 | 0 | 0.0 | 3.2 | 0.00 | 0.58 | 0.28 | 93 | 1015.1 |
| 20260505151034 | 1 | 0 | 0.0 | 3.2 | 0.00 | 0.58 | 0.28 | 93 | 1015.0 |
| 20260505150537 | 1 | 0 | 0.0 | 1.6 | 0.03 | 0.58 | 0.28 | 93 | 1015.0 |
| 20260505140537 | 0 | 0 | 0.0 | 3.2 | 0.05 | 0.56 | 0.25 | 93 | 1015.1 |
| 20260505125037 | 0 | 0 | 0.0 | 4.8 | 0.05 | 0.51 | 0.20 | 92 | 1014.3 |
| 20260505124550 | 0 | 0 | 0.0 | 6.4 | 0.05 | 0.51 | 0.20 | 92 | 1014.1 |
| 20260505124040 | 0 | 0 | 0.0 | 6.4 | 0.05 | 0.51 | 0.20 | 92 | 1014.1 |
| 20260505123538 | 0 | 0 | 0.0 | 4.8 | 0.08 | 0.51 | 0.20 | 92 | 1014.1 |
| 20260505123055 | 0 | 341 | 0.0 | 3.2 | 0.08 | 0.51 | 0.20 | 92 | 1013.9 |
| 20260505122538 | 1 | 0 | 0.0 | 4.8 | 0.05 | 0.48 | 0.18 | 92 | 1014.0 |
| 20260505122038 | 1 | 0 | 0.0 | 4.8 | 0.08 | 0.48 | 0.18 | 92 | 1014.0 |
| 20260505121550 | 1 | 329 | 0.0 | 4.8 | 0.08 | 0.48 | 0.18 | 92 | 1014.1 |
| 20260505121038 | 1 | 0 | 0.0 | 6.4 | 0.08 | 0.48 | 0.18 | 91 | 1014.0 |
| 20260505120539 | 1 | 0 | 0.0 | 6.4 | 0.05 | 0.46 | 0.15 | 91 | 1013.8 |
| 20260505120110 | 1 | 24 | 0.0 | 6.4 | 0.08 | 0.46 | 0.15 | 91 | 1013.9 |
| 20260505115537 | 1 | 0 | 0.0 | 3.2 | 0.08 | 0.46 | 0.15 | 91 | 1013.7 |
| 20260505115036 | 1 | 0 | 0.0 | 4.8 | 0.08 | 0.46 | 0.15 | 91 | 1013.9 |
| 20260505114548 | 1 | 0 | 0.0 | 4.8 | 0.08 | 0.46 | 0.15 | 91 | 1013.7 |
| 20260505114041 | 1 | 0 | 0.0 | 4.8 | 0.08 | 0.46 | 0.15 | 91 | 1013.8 |
| 20260505113542 | 1 | 0 | 0.0 | 3.2 | 0.05 | 0.43 | 0.13 | 91 | 1013.9 |
| 20260505113050 | 1 | 0 | 0.0 | 4.8 | 0.05 | 0.43 | 0.13 | 90 | 1013.9 |
| 20260505112537 | 2 | 0 | 0.0 | 4.8 | 0.05 | 0.43 | 0.13 | 90 | 1013.7 |
| 20260505112037 | 2 | 5 | 1.6 | 14.5 | 0.05 | 0.41 | 0.10 | 90 | 1013.7 |
| 20260505111547 | 2 | 360 | 1.6 | 14.5 | 0.05 | 0.41 | 0.10 | 90 | 1013.6 |
| 20260505111038 | 2 | 360 | 1.6 | 14.5 | 0.05 | 0.41 | 0.10 | 89 | 1013.6 |
| 20260505110538 | 2 | 5 | 1.6 | 14.5 | 0.03 | 0.38 | 0.08 | 89 | 1013.6 |
| 20260505110107 | 3 | 32 | 3.2 | 12.9 | 0.05 | 0.38 | 0.08 | 89 | 1013.5 |
| 20260505102036 | 3 | 0 | 1.6 | 16.1 | 0.05 | 0.36 | 0.05 | 90 | 1012.5 |
| 20260505101547 | 3 | 0 | 1.6 | 12.9 | 0.05 | 0.36 | 0.05 | 90 | 1012.5 |
| 20260505101034 | 3 | 41 | 0.0 | 9.7 | 0.05 | 0.36 | 0.05 | 90 | 1012.6 |
| 20260505100534 | 3 | 10 | 0.0 | 12.9 | 0.05 | 0.36 | 0.05 | 90 | 1012.5 |
| 20260505100043 | 3 | 5 | 0.0 | 12.9 | 0.03 | 0.33 | 0.03 | 90 | 1012.5 |
| 20260505095534 | 3 | 259 | 0.0 | 8.0 | 0.03 | 0.33 | 0.03 | 90 | 1012.2 |
| 20260505095035 | 4 | 5 | 0.0 | 8.0 | 0.03 | 0.33 | 0.03 | 91 | 1012.3 |
| 20260505094543 | 4 | 360 | 1.6 | 8.0 | 0.03 | 0.33 | 0.03 | 91 | 1012.3 |
| 20260505094034 | 4 | 17 | 0.0 | 8.0 | 0.03 | 0.33 | 0.03 | 91 | 1012.2 |
| 20260505093534 | 4 | 13 | 0.0 | 11.3 | 0.03 | 0.33 | 0.03 | 91 | 1012.1 |
| 20260505093042 | 4 | 0 | 0.0 | 11.3 | 0.00 | 0.30 | 0.00 | 90 | 1012.2 |
| 20260505092534 | 5 | 352 | 1.6 | 9.7 | 0.00 | 0.30 | 0.00 | 91 | 1012.2 |
| 20260505092035 | 5 | 352 | 1.6 | 12.9 | 0.00 | 0.30 | 0.00 | 91 | 1012.2 |
| 20260505091554 | 5 | 5 | 1.6 | 16.1 | 0.00 | 0.30 | 0.00 | 90 | 1012.1 |
| 20260505091040 | 5 | 338 | 0.0 | 17.7 | 0.00 | 0.30 | 0.00 | 90 | 1011.9 |
| 20260505090533 | 5 | 5 | 3.2 | 29.0 | 0.00 | 0.30 | 0.00 | 90 | 1011.9 |
| 20260505090041 | 5 | 336 | 4.8 | 29.0 | 0.00 | 0.30 | 0.00 | 90 | 1011.8 |
| 20260505085534 | 5 | 0 | 0.0 | 16.1 | 0.00 | 0.30 | 0.00 | 90 | 1011.8 |
| 20260505085037 | 5 | 338 | 3.2 | 16.1 | 0.00 | 0.30 | 0.00 | 90 | 1012.0 |
| 20260505084556 | 5 | 0 | 1.6 | 8.0 | 0.00 | 0.30 | 0.00 | 90 | 1012.0 |
| 20260505084035 | 5 | 0 | 0.0 | 9.7 | 0.00 | 0.30 | 0.00 | 89 | 1011.9 |
| 20260505083538 | 5 | 0 | 0.0 | 9.7 | 0.00 | 0.30 | 0.00 | 89 | 1011.9 |
| 20260505083055 | 5 | 338 | 0.0 | 8.0 | 0.00 | 0.30 | 0.00 | 88 | 1012.0 |
| 20260505082534 | 5 | 346 | 0.0 | 6.4 | 0.00 | 0.30 | 0.00 | 88 | 1012.0 |
| 20260505082037 | 5 | 0 | 1.6 | 9.7 | 0.00 | 0.30 | 0.00 | 88 | 1012.0 |
| 20260505081542 | 5 | 0 | 1.6 | 9.7 | 0.00 | 0.30 | 0.00 | 87 | 1012.2 |
| 20260505081035 | 6 | 351 | 1.6 | 9.7 | 0.00 | 0.30 | 0.00 | 87 | 1012.3 |
| 20260505080533 | 6 | 341 | 0.0 | 9.7 | 0.00 | 0.30 | 0.00 | 86 | 1012.2 |
| 20260505080041 | 7 | 0 | 1.6 | 9.7 | 0.00 | 0.30 | 0.00 | 86 | 1012.2 |
| 20260505075538 | 7 | 0 | 0.0 | 8.0 | 0.00 | 0.30 | 0.00 | 87 | 1011.9 |
| 20260505075036 | 7 | 327 | 0.0 | 8.0 | 0.00 | 0.30 | 0.00 | 87 | 1012.0 |
| 20260505074540 | 7 | 0 | 0.0 | 1.6 | 0.00 | 0.30 | 0.00 | 87 | 1012.1 |
| 20260505074036 | 7 | 252 | 0.0 | 0.0 | 0.00 | 0.30 | 0.00 | 87 | 1012.1 |
| 20260505073537 | 7 | 0 | 0.0 | 0.0 | 0.00 | 0.30 | 0.00 | 87 | 1012.1 |
| 20260505073049 | 7 | 0 | 0.0 | 0.0 | 0.00 | 0.30 | 0.00 | 87 | 1012.1 |
| 20260505072539 | 7 | 0 | 0.0 | 0.0 | 0.00 | 0.30 | 0.00 | 87 | 1011.9 |
| 20260505072038 | 7 | 0 | 0.0 | 0.0 | 0.00 | 0.30 | 0.00 | 88 | 1011.8 |
| 20260505071542 | 7 | 0 | 0.0 | 0.0 | 0.00 | 0.30 | 0.00 | 88 | 1011.8 |
| 20260505071038 | 7 | 0 | 0.0 | 1.6 | 0.00 | 0.30 | 0.00 | 88 | 1012.0 |
| 20260505070538 | 7 | 0 | 0.0 | 3.2 | 0.00 | 0.30 | 0.00 | 88 | 1011.9 |
| 20260505070050 | 7 | 0 | 0.0 | 3.2 | 0.00 | 0.30 | 0.00 | 88 | 1011.8 |
| 20260505065538 | 7 | 0 | 0.0 | 0.0 | 0.00 | 0.30 | 0.00 | 88 | 1011.8 |
| 20260505065036 | 7 | 0 | 0.0 | 3.2 | 0.00 | 0.30 | 0.00 | 88 | 1011.7 |
| 20260505064603 | 7 | 0 | 0.0 | 3.2 | 0.00 | 0.30 | 0.00 | 88 | 1011.9 |
| 20260505064037 | 7 | 0 | 0.0 | 3.2 | 0.00 | 0.30 | 0.00 | 88 | 1011.9 |
| 20260505063535 | 7 | 0 | 0.0 | 0.0 | 0.00 | 0.30 | 0.00 | 88 | 1011.9 |
| 20260505063048 | 7 | 0 | 0.0 | 0.0 | 0.00 | 0.30 | 0.00 | 88 | 1011.9 |
| 20260505062537 | 7 | 0 | 0.0 | 1.6 | 0.00 | 0.30 | 0.00 | 88 | 1011.9 |
| 20260505062038 | 7 | 0 | 0.0 | 1.6 | 0.00 | 0.30 | 0.00 | 88 | 1011.8 |
| 20260505061539 | 7 | 0 | 0.0 | 0.0 | 0.00 | 0.30 | 0.00 | 89 | 1011.9 |
| 20260505061041 | 7 | 0 | 0.0 | 0.0 | 0.00 | 0.30 | 0.00 | 89 | 1011.8 |
| 20260505060537 | 7 | 0 | 0.0 | 1.6 | 0.00 | 0.30 | 0.00 | 89 | 1011.9 |
| 20260505060038 | 7 | 0 | 0.0 | 1.6 | 0.00 | 0.30 | 0.00 | 89 | 1011.7 |
| 20260505055540 | 7 | 0 | 0.0 | 1.6 | 0.00 | 0.30 | 0.30 | 89 | 1011.8 |
| 20260505055038 | 7 | 0 | 0.0 | 0.0 | 0.00 | 0.30 | 0.30 | 88 | 1011.9 |
| 20260505054550 | 7 | 0 | 0.0 | 0.0 | 0.00 | 0.30 | 0.30 | 88 | 1012.0 |
| 20260505054037 | 6 | 0 | 0.0 | 0.0 | 0.00 | 0.30 | 0.30 | 88 | 1012.0 |
| 20260505053538 | 6 | 0 | 0.0 | 0.0 | 0.00 | 0.30 | 0.30 | 88 | 1011.5 |
| 20260505053043 | 6 | 0 | 0.0 | 0.0 | 0.00 | 0.30 | 0.30 | 87 | 1011.5 |
| 20260505052541 | 6 | 0 | 0.0 | 0.0 | 0.00 | 0.30 | 0.30 | 88 | 1011.5 |
| 20260505052037 | 6 | 0 | 0.0 | 0.0 | 0.00 | 0.30 | 0.30 | 87 | 1011.5 |
| 20260505051549 | 6 | 0 | 0.0 | 0.0 | 0.00 | 0.30 | 0.30 | 87 | 1011.5 |
| 20260505051036 | 6 | 0 | 0.0 | 0.0 | 0.00 | 0.30 | 0.30 | 87 | 1011.6 |
| 20260505050536 | 6 | 0 | 0.0 | 0.0 | 0.03 | 0.30 | 0.30 | 87 | 1011.7 |
| 20260505041542 | 7 | 0 | 0.0 | 0.0 | 0.13 | 0.30 | 0.30 | 86 | 1012.1 |
| 20260505041038 | 7 | 0 | 0.0 | 0.0 | 0.13 | 0.30 | 0.30 | 86 | 1012.2 |
| 20260505040541 | 7 | 0 | 0.0 | 0.0 | 0.13 | 0.28 | 0.28 | 86 | 1012.3 |
| 20260505040059 | 7 | 0 | 0.0 | 0.0 | 0.15 | 0.28 | 0.28 | 86 | 1012.1 |
| 20260505035537 | 7 | 0 | 0.0 | 0.0 | 0.20 | 0.28 | 0.28 | 86 | 1012.1 |
| 20260505035036 | 7 | 0 | 0.0 | 0.0 | 0.25 | 0.28 | 0.28 | 85 | 1011.9 |
| 20260505034605 | 7 | 0 | 0.0 | 1.6 | 0.28 | 0.28 | 0.28 | 84 | 1012.1 |
| 20260505034037 | 8 | 0 | 0.0 | 1.6 | 0.25 | 0.25 | 0.25 | 84 | 1012.0 |
| 20260505033538 | 8 | 0 | 0.0 | 1.6 | 0.23 | 0.23 | 0.23 | 83 | 1012.1 |
| 20260505033045 | 8 | 0 | 0.0 | 3.2 | 0.23 | 0.23 | 0.23 | 82 | 1012.2 |
| 20260505032538 | 8 | 0 | 0.0 | 4.8 | 0.20 | 0.20 | 0.20 | 82 | 1012.1 |
| 20260505032037 | 8 | 0 | 0.0 | 4.8 | 0.20 | 0.20 | 0.20 | 82 | 1012.1 |
| 20260505031545 | 8 | 0 | 0.0 | 4.8 | 0.18 | 0.18 | 0.18 | 82 | 1012.0 |
| 20260505031038 | 8 | 0 | 0.0 | 17.7 | 0.18 | 0.18 | 0.18 | 81 | 1011.8 |
| 20260505030541 | 8 | 0 | 3.2 | 17.7 | 0.15 | 0.15 | 0.15 | 80 | 1012.0 |
| 20260505030047 | 8 | 312 | 1.6 | 17.7 | 0.13 | 0.13 | 0.13 | 83 | 1011.7 |
| 20260505025538 | 8 | 0 | 3.2 | 17.7 | 0.08 | 0.08 | 0.08 | 82 | 1011.6 |
| 20260505025038 | 9 | 0 | 0.0 | 8.0 | 0.03 | 0.03 | 0.03 | 81 | 1011.3 |
| 20260505024559 | 9 | 0 | 0.0 | 8.0 | 0.00 | 0.00 | 0.00 | 79 | 1011.3 |
| 20260505024037 | 9 | 340 | 0.0 | 8.0 | 0.00 | 0.00 | 0.00 | 77 | 1011.1 |
| 20260505023539 | 10 | 337 | 1.6 | 8.0 | 0.00 | 0.00 | 0.00 | 75 | 1011.1 |
| 20260505023048 | 10 | 348 | 0.0 | 4.8 | 0.00 | 0.00 | 0.00 | 73 | 1010.9 |
| 20260505022537 | 10 | 344 | 0.0 | 6.4 | 0.00 | 0.00 | 0.00 | 73 | 1010.8 |
| 20260505022037 | 10 | 319 | 0.0 | 6.4 | 0.00 | 0.00 | 0.00 | 73 | 1010.8 |
| 20260505021545 | 10 | 360 | 0.0 | 6.4 | 0.00 | 0.00 | 0.00 | 72 | 1010.7 |
| 20260505021037 | 10 | 343 | 0.0 | 6.4 | 0.00 | 0.00 | 0.00 | 73 | 1010.8 |
| 20260505020538 | 10 | 352 | 0.0 | 6.4 | 0.00 | 0.00 | 0.00 | 72 | 1010.7 |
| 20260505020103 | 10 | 0 | 0.0 | 4.8 | 0.00 | 0.00 | 0.00 | 72 | 1010.7 |
| 20260505015537 | 10 | 0 | 0.0 | 9.7 | 0.00 | 0.00 | 0.00 | 71 | 1010.9 |